GW4987 Weather Reports


time (UTC)temp
F
wind
direction
speed
knots
gust
knots
rain 1hr
in
rain 24hr
in
rain mn
in
humidity
%
barometer
mb
20260904162504 72 132 13.0 16.5 0.00 0.00 0.00 63 1021.7
20260904162003 72 134 2.6 10.4 0.00 0.00 0.00 62 1021.8
20260904161504 71 163 7.8 12.2 0.00 0.00 0.00 64 1021.9
20260904161004 71 224 8.7 13.9 0.00 0.00 0.00 63 1021.7
20260904160503 71 159 17.4 25.2 0.00 0.00 0.00 64 1021.7
20260904160003 70 125 9.6 13.9 0.00 0.00 0.00 65 1021.7
20260904155504 70 162 11.3 17.4 0.00 0.00 0.00 66 1021.7
20260904155003 70 201 10.4 15.6 0.00 0.00 0.00 67 1021.6
20260904154503 70 146 7.8 19.1 0.00 0.00 0.00 68 1021.5
20260904154004 70 150 7.0 16.5 0.00 0.00 0.00 69 1021.6
20260904153504 70 140 2.6 11.3 0.00 0.00 0.00 69 1021.6
20260904153004 69 112 8.7 22.6 0.00 0.00 0.00 71 1021.6
20260904152504 69 208 9.6 11.3 0.00 0.00 0.00 71 1021.4
20260904152003 68 147 9.6 18.2 0.00 0.00 0.00 74 1021.5
20260904151503 68 104 6.1 14.8 0.00 0.00 0.00 76 1021.4
20260904151004 68 171 7.0 15.6 0.00 0.00 0.00 76 1021.5
20260904150504 68 103 9.6 15.6 0.00 0.00 0.00 77 1021.4
20260904150004 68 164 4.3 9.6 0.00 0.00 0.00 78 1021.1
20260904145504 68 181 4.3 15.6 0.00 0.00 0.00 78 1021.5
20260904145004 68 144 7.8 11.3 0.00 0.00 0.00 79 1021.1
20260904144504 67 130 5.2 17.4 0.00 0.00 0.00 79 1021.3
20260904144004 67 143 8.7 17.4 0.00 0.00 0.00 79 1021.4
20260904143504 66 131 12.2 16.5 0.00 0.00 0.00 80 1021.0
20260904143004 66 117 7.8 17.4 0.00 0.00 0.00 81 1021.3
20260904142004 66 214 3.5 9.6 0.00 0.00 0.00 82 1021.1
20260904141504 65 135 7.8 9.6 0.00 0.00 0.00 83 1021.0
20260904141003 65 167 3.5 6.1 0.00 0.00 0.00 84 1021.0
20260904140503 64 160 5.2 7.0 0.00 0.00 0.00 83 1020.8
20260904140004 64 137 4.3 7.8 0.00 0.00 0.00 83 1020.8
20260904135503 64 92 7.0 9.6 0.00 0.00 0.00 83 1020.7
20260904135003 64 186 2.6 6.1 0.00 0.00 0.00 82 1020.8
20260904134504 63 108 3.5 5.2 0.00 0.00 0.00 83 1020.8
20260904134003 63 94 4.3 4.3 0.00 0.00 0.00 82 1020.8
20260904133503 63 120 1.7 2.6 0.00 0.00 0.00 84 1020.8
20260904133003 62 76 2.6 2.6 0.00 0.00 0.00 85 1020.7
20260904132504 61 102 1.7 1.7 0.00 0.00 0.00 87 1020.7
20260904132004 60 120 1.7 1.7 0.00 0.00 0.00 88 1020.5
20260904131504 59 93 1.7 2.6 0.00 0.00 0.00 88 1020.5
20260904131003 59 269 0.0 1.7 0.00 0.00 0.00 88 1020.4
20260904130503 60 319 1.7 2.6 0.00 0.00 0.00 88 1020.3
20260904130004 59 351 0.0 1.7 0.00 0.00 0.00 88 1020.3
20260904125504 60 241 0.0 0.0 0.00 0.00 0.00 87 1020.3
20260904125004 60 176 1.7 1.7 0.00 0.00 0.00 86 1020.2
20260904124504 61 172 1.7 3.5 0.00 0.00 0.00 85 1020.2
20260904124003 61 138 3.5 7.0 0.00 0.00 0.00 85 1020.2
20260904123503 61 97 2.6 3.5 0.00 0.00 0.00 84 1020.2
20260904123004 61 91 5.2 9.6 0.00 0.00 0.00 84 1020.1
20260904122504 61 125 3.5 6.1 0.00 0.00 0.00 83 1020.2
20260904122004 61 115 3.5 5.2 0.00 0.00 0.00 82 1020.1
20260904121504 61 105 2.6 5.2 0.00 0.00 0.00 82 1020.1
20260904121003 61 109 1.7 3.5 0.00 0.00 0.00 81 1020.0
20260904120503 62 111 3.5 4.3 0.00 0.00 0.00 81 1019.9
20260904120004 62 102 3.5 4.3 0.00 0.00 0.00 80 1019.9
20260904114504 63 129 7.0 8.7 0.00 0.00 0.00 78 1020.1
20260904114004 63 167 1.7 2.6 0.00 0.00 0.00 76 1020.1
20260904113504 63 149 2.6 2.6 0.00 0.00 0.00 76 1020.0
20260904113003 64 189 5.2 7.8 0.00 0.00 0.00 75 1020.1
20260904112504 64 199 7.8 11.3 0.00 0.00 0.00 74 1020.2
20260904112004 64 185 2.6 5.2 0.00 0.00 0.00 74 1019.9
20260904111503 64 205 7.0 7.8 0.00 0.00 0.00 75 1020.0
20260904111003 64 147 3.5 7.0 0.00 0.00 0.00 74 1020.1
20260904110504 64 155 4.3 9.6 0.00 0.00 0.00 74 1019.8
20260904104504 64 166 9.6 10.4 0.00 0.00 0.00 73 1019.7
20260904104004 64 182 2.6 8.7 0.00 0.00 0.00 73 1019.6
20260904103504 65 144 8.7 10.4 0.00 0.00 0.00 73 1019.5
20260904103003 65 145 7.8 9.6 0.00 0.00 0.00 73 1019.8
20260904102503 65 180 6.1 7.0 0.00 0.00 0.00 73 1019.8
20260904101004 65 148 5.2 7.8 0.00 0.00 0.00 70 1019.6
20260904100504 65 194 8.7 13.0 0.00 0.00 0.00 69 1019.6
20260904100005 65 166 3.5 6.1 0.00 0.00 0.00 68 1019.6
20260904095503 65 134 3.5 5.2 0.00 0.00 0.00 68 1019.6
20260904095003 65 204 3.5 11.3 0.00 0.00 0.00 68 1019.4
20260904094504 65 116 4.3 6.1 0.00 0.00 0.00 68 1019.4
20260904094003 66 162 4.3 4.3 0.00 0.00 0.00 68 1019.4
20260904093504 65 168 5.2 5.2 0.00 0.00 0.00 69 1019.4
20260904093004 65 158 4.3 5.2 0.00 0.00 0.00 69 1019.7
20260904092503 66 147 5.2 9.6 0.00 0.00 0.00 68 1019.7
20260904092004 66 184 4.3 4.3 0.00 0.00 0.00 68 1019.5
20260904091504 66 194 4.3 8.7 0.00 0.00 0.00 68 1019.6
20260904091004 65 120 5.2 5.2 0.00 0.00 0.00 69 1019.6
20260904090504 66 151 1.7 3.5 0.00 0.00 0.00 68 1019.5
20260904090004 66 184 2.6 2.6 0.00 0.00 0.00 67 1019.5
20260904085503 65 113 3.5 3.5 0.00 0.00 0.00 68 1019.6
20260904085003 66 128 3.5 3.5 0.00 0.00 0.00 67 1019.7
20260904084503 66 149 1.7 4.3 0.00 0.00 0.00 66 1019.5
20260904084003 66 152 4.3 4.3 0.00 0.00 0.00 64 1019.6
20260904083503 67 139 2.6 3.5 0.00 0.00 0.00 63 1019.8
20260904081503 67 212 1.7 4.3 0.00 0.00 0.00 57 1019.8
20260904081003 68 198 5.2 6.1 0.00 0.00 0.00 55 1019.9
20260904080503 67 219 3.5 6.1 0.00 0.00 0.00 55 1019.7
20260904080004 67 167 1.7 3.5 0.00 0.00 0.00 55 1019.8
20260904075504 67 186 4.3 7.0 0.00 0.00 0.00 55 1019.8
20260904075004 67 236 2.6 4.3 0.00 0.00 0.00 56 1019.8
20260904074504 67 207 1.7 4.3 0.00 0.00 0.00 56 1019.8
20260904074003 67 185 2.6 3.5 0.00 0.00 0.00 57 1019.9
20260904073504 67 218 6.1 6.1 0.00 0.00 0.00 58 1019.9
20260904073003 67 194 2.6 4.3 0.00 0.00 0.00 58 1020.0
20260904072503 67 264 2.6 2.6 0.00 0.00 0.00 58 1019.9
20260904072004 67 195 1.7 1.7 0.00 0.00 0.00 58 1019.9
20260904071503 67 246 0.0 1.7 0.00 0.00 0.00 57 1019.8
20260904071003 67 144 1.7 1.7 0.00 0.00 0.00 57 1019.8
20260904070504 68 234 2.6 2.6 0.00 0.00 0.00 53 1019.8
20260904070004 68 276 3.5 4.3 0.00 0.00 0.00 53 1019.9
20260904065503 68 256 3.5 3.5 0.00 0.00 0.00 51 1019.9
20260904065004 68 221 2.6 5.2 0.00 0.00 0.00 51 1019.6
20260904063003 68 208 4.3 4.3 0.00 0.00 0.00 50 1020.0
20260904062503 68 190 4.3 6.1 0.00 0.00 0.00 50 1019.8
20260904062004 68 195 5.2 7.0 0.00 0.00 0.00 50 1019.8
20260904061503 69 184 2.6 6.1 0.00 0.00 0.00 50 1019.8
20260904061004 69 203 4.3 7.8 0.00 0.00 0.00 49 1019.8
20260904060504 69 222 6.1 7.0 0.00 0.00 0.00 50 1019.9
20260904060003 69 207 6.1 7.0 0.00 0.00 0.00 52 1019.8
20260904055503 69 226 6.1 6.1 0.00 0.00 0.00 56 1019.8
20260904055003 69 218 3.5 7.0 0.00 0.00 0.00 61 1019.8
20260904054504 69 204 2.6 7.0 0.00 0.00 0.00 62 1019.7
20260904054004 70 233 3.5 7.0 0.00 0.00 0.00 62 1019.8
20260904053504 70 186 3.5 8.7 0.00 0.00 0.00 62 1019.6
20260904053004 71 260 7.0 14.8 0.00 0.00 0.00 62 1019.8
20260904052504 71 187 12.2 13.0 0.00 0.00 0.00 62 1019.6
20260904052004 71 193 6.1 13.9 0.00 0.00 0.00 62 1019.7
20260904044504 71 216 6.1 7.0 0.00 0.00 0.00 57 1019.9
20260904044004 71 211 4.3 4.3 0.00 0.00 0.00 55 1019.7
20260904043504 71 185 4.3 6.1 0.00 0.00 0.00 55 1019.8
20260904043004 71 115 2.6 7.0 0.00 0.00 0.00 54 1019.9
20260904042503 71 126 8.7 8.7 0.00 0.00 0.00 54 1019.7
20260904042004 72 183 4.3 8.7 0.00 0.00 0.00 53 1019.7
20260904041504 72 209 8.7 8.7 0.00 0.00 0.00 53 1019.7
20260904041004 72 180 2.6 11.3 0.00 0.00 0.00 53 1019.5
20260904040504 72 177 6.1 9.6 0.00 0.00 0.00 52 1019.5
20260904040004 72 285 4.3 9.6 0.00 0.00 0.00 51 1019.5
20260904035503 72 220 5.2 11.3 0.00 0.00 0.00 51 1019.6
20260904033503 72 189 4.3 10.4 0.00 0.00 0.00 49 1019.3
20260904033004 72 204 8.7 12.2 0.00 0.00 0.00 49 1019.6
20260904032504 72 191 8.7 15.6 0.00 0.00 0.00 49 1019.6
20260904032003 72 211 13.0 14.8 0.00 0.00 0.00 48 1019.3
20260904031503 72 180 11.3 15.6 0.00 0.00 0.00 49 1019.4
20260904031004 72 226 8.7 13.9 0.00 0.00 0.00 49 1019.3
20260904030503 72 191 7.8 10.4 0.00 0.00 0.00 49 1019.3
20260904030004 72 185 7.0 9.6 0.00 0.00 0.00 49 1019.5
20260904025504 72 218 7.8 13.0 0.00 0.00 0.00 49 1019.5
20260904025004 72 199 7.0 7.8 0.00 0.00 0.00 50 1019.3
20260904024504 72 199 5.2 11.3 0.00 0.00 0.00 50 1019.2
20260904024004 72 197 7.8 13.0 0.00 0.00 0.00 50 1019.3
20260904023504 72 218 7.0 12.2 0.00 0.00 0.00 50 1019.3
20260904023004 72 218 5.2 9.6 0.00 0.00 0.00 51 1019.0
20260904022504 72 217 9.6 9.6 0.00 0.00 0.00 51 1019.3
20260904022003 72 188 4.3 7.8 0.00 0.00 0.00 51 1019.2
20260904021503 72 184 7.0 8.7 0.00 0.00 0.00 51 1019.0
20260904021004 73 175 3.5 10.4 0.00 0.00 0.00 50 1019.2
20260904015004 74 198 4.3 10.4 0.00 0.00 0.00 48 1019.0
20260904014504 74 206 13.9 14.8 0.00 0.00 0.00 47 1019.0
20260904014004 74 213 10.4 18.2 0.00 0.00 0.00 46 1019.0
20260904012004 76 206 7.8 9.6 0.00 0.00 0.00 45 1019.0
20260904011504 76 163 4.3 14.8 0.00 0.00 0.00 45 1018.8
20260904011004 76 182 3.5 16.5 0.00 0.00 0.00 45 1018.9
20260904010504 76 198 7.8 15.6 0.00 0.00 0.00 45 1019.2
20260904010004 76 200 17.4 21.7 0.00 0.00 0.00 44 1019.0
20260904005504 76 209 14.8 19.1 0.00 0.00 0.00 43 1019.0
20260904005003 76 180 11.3 21.7 0.00 0.00 0.00 44 1019.2
20260904004503 78 203 7.0 17.4 0.00 0.00 0.00 42 1019.0
20260904004003 77 167 5.2 12.2 0.00 0.00 0.00 45 1019.3
20260904003504 77 181 10.4 13.0 0.00 0.00 0.00 45 1019.2
20260904003004 77 185 8.7 22.6 0.00 0.00 0.00 45 1019.4
20260904002504 78 228 13.9 13.9 0.00 0.00 0.00 44 1019.2
20260904002004 77 218 9.6 22.6 0.00 0.00 0.00 45 1019.4
20260904001504 78 190 7.0 12.2 0.00 0.00 0.00 43 1019.3
20260904001004 78 205 2.6 13.9 0.00 0.00 0.00 43 1019.3
20260903235004 78 162 4.3 16.5 0.00 0.00 0.00 43 1019.2
20260903234504 78 216 7.0 10.4 0.00 0.00 0.00 44 1019.4
20260903234004 78 183 13.0 13.9 0.00 0.00 0.00 43 1019.3
20260903233503 78 186 10.4 19.1 0.00 0.00 0.00 44 1019.0
20260903233003 78 154 8.7 12.2 0.00 0.00 0.00 44 1019.3
20260903232503 78 165 6.1 16.5 0.00 0.00 0.00 44 1019.2
20260903232004 78 173 8.7 18.2 0.00 0.00 0.00 43 1019.3
20260903231504 79 155 7.0 16.5 0.00 0.00 0.00 42 1019.4
20260903231004 80 212 8.7 9.6 0.00 0.00 0.00 40 1019.4
20260903230504 79 136 8.7 15.6 0.00 0.00 0.00 41 1019.4
20260903230004 78 179 7.8 14.8 0.00 0.00 0.00 43 1019.6
20260903225504 77 180 9.6 13.9 0.00 0.00 0.00 44 1019.7
20260903225003 77 220 8.7 14.8 0.00 0.00 0.00 43 1019.6
20260903224503 76 214 7.0 8.7 0.00 0.00 0.00 44 1019.7
20260903224004 76 207 7.0 20.9 0.00 0.00 0.00 44 1019.7
20260903223503 77 238 7.8 10.4 0.00 0.00 0.00 44 1019.8
20260903223004 76 191 9.6 18.2 0.00 0.00 0.00 45 1019.9
20260903222503 76 177 5.2 16.5 0.00 0.00 0.00 45 1019.8
20260903222003 78 203 12.2 16.5 0.00 0.00 0.00 44 1019.8
20260903221504 77 194 6.1 16.5 0.00 0.00 0.00 45 1019.9
20260903221003 76 211 7.0 13.9 0.00 0.00 0.00 45 1020.0
20260903220503 78 167 5.2 16.5 0.00 0.00 0.00 43 1020.1
20260903220004 77 185 7.0 12.2 0.00 0.00 0.00 45 1020.1
20260903215504 77 184 6.1 13.9 0.00 0.00 0.00 45 1020.1
20260903215004 77 119 7.8 9.6 0.00 0.00 0.00 46 1020.2
20260903214504 80 136 16.5 20.0 0.00 0.00 0.00 43 1020.2
20260903212503 76 213 7.8 11.3 0.00 0.00 0.00 47 1020.3
20260903212003 78 168 7.0 17.4 0.00 0.00 0.00 43 1020.3
20260903211503 78 131 17.4 19.1 0.00 0.00 0.00 42 1020.4
20260903211003 76 155 8.7 12.2 0.00 0.00 0.00 45 1020.5
20260903210503 78 218 5.2 10.4 0.00 0.00 0.00 44 1020.2
20260903210004 77 225 9.6 17.4 0.00 0.00 0.00 45 1020.4
20260903205503 76 189 9.6 16.5 0.00 0.00 0.00 46 1020.5
20260903205003 76 209 15.6 25.2 0.00 0.00 0.00 44 1020.4
20260903204504 77 204 7.8 19.1 0.00 0.00 0.00 42 1020.4
20260903204004 77 248 11.3 20.0 0.00 0.00 0.00 41 1020.6
20260903203504 77 180 7.8 17.4 0.00 0.00 0.00 43 1020.4
20260903203004 76 186 8.7 21.7 0.00 0.00 0.00 44 1020.6
20260903202503 78 221 21.7 22.6 0.00 0.00 0.00 42 1020.5
20260903202003 78 185 11.3 19.1 0.00 0.00 0.00 41 1020.6
20260903201503 76 154 2.6 16.5 0.00 0.00 0.00 46 1020.6
20260903201003 76 210 6.1 19.1 0.00 0.00 0.00 45 1020.6
20260903200503 76 180 8.7 12.2 0.00 0.00 0.00 45 1020.5
20260903200003 78 228 1.7 8.7 0.00 0.00 0.00 44 1020.5
20260903195503 76 191 7.8 16.5 0.00 0.00 0.00 47 1020.7
20260903195004 76 180 9.6 18.2 0.00 0.00 0.00 46 1020.8
20260903194504 76 149 8.7 13.0 0.00 0.00 0.00 46 1020.7
20260903194003 77 162 6.1 13.0 0.00 0.00 0.00 45 1020.9
20260903193504 77 212 6.1 11.3 0.00 0.00 0.00 45 1020.9
20260903193004 75 234 9.6 16.5 0.00 0.00 0.00 47 1020.8
20260903192504 76 243 12.2 15.6 0.00 0.00 0.00 45 1020.8
20260903192004 78 193 7.0 17.4 0.00 0.00 0.00 43 1020.9
20260903190003 78 105 4.3 13.0 0.00 0.00 0.00 44 1021.1
20260903185503 76 145 7.0 14.8 0.00 0.00 0.00 44 1021.3
20260903185004 77 165 5.2 13.0 0.00 0.00 0.00 44 1021.4
20260903184504 77 146 5.2 7.8 0.00 0.00 0.00 44 1021.4
20260903184004 76 182 13.9 16.5 0.00 0.00 0.00 44 1021.6
20260903183504 76 231 14.8 20.9 0.00 0.00 0.00 44 1021.4
20260903181504 77 233 4.3 18.2 0.00 0.00 0.00 42 1021.7
20260903181004 76 200 10.4 19.1 0.00 0.00 0.00 42 1021.6
20260903180504 76 136 14.8 20.9 0.00 0.00 0.00 42 1021.7
20260903180003 77 117 7.8 12.2 0.00 0.00 0.00 41 1021.5
20260903175504 76 145 8.7 11.3 0.00 0.00 0.00 41 1021.8
20260903175003 76 126 2.6 17.4 0.00 0.00 0.00 42 1022.0
20260903174503 77 143 7.0 15.6 0.00 0.00 0.00 41 1021.8
20260903174004 75 171 6.1 11.3 0.00 0.00 0.00 42 1021.8
20260903173504 74 193 7.0 20.0 0.00 0.00 0.00 43 1021.9
20260903173004 74 205 10.4 18.2 0.00 0.00 0.00 43 1021.8
20260903172504 75 154 9.6 16.5 0.00 0.00 0.00 42 1021.8
20260903172004 74 153 7.0 17.4 0.00 0.00 0.00 44 1021.7
20260903171504 74 156 7.8 13.0 0.00 0.00 0.00 44 1021.8
20260903171004 74 207 13.0 20.9 0.00 0.00 0.00 44 1021.9
20260903170504 75 169 9.6 15.6 0.00 0.00 0.00 43 1021.8
20260903170004 76 199 10.4 11.3 0.00 0.00 0.00 42 1021.7
20260903165503 75 151 6.1 10.4 0.00 0.00 0.00 43 1021.7
20260903165003 74 191 5.2 13.9 0.00 0.00 0.00 44 1021.8
20260903164503 73 197 12.2 16.5 0.00 0.00 0.00 45 1021.9
20260903164004 73 185 13.9 20.0 0.00 0.00 0.00 45 1021.8
20260903163504 74 181 8.7 17.4 0.00 0.00 0.00 44 1021.6
20260903163004 73 207 5.2 14.8 0.00 0.00 0.00 45 1021.6